sat.trackr.live / text

‹ back to catalog

STARLINK-1067

NORAD 44771 · 2019-074BL

PAYLOAD ACTIVE UNKNOWN

§ Identity

Operator
Country
US
Launch date
2019-11-11
Launch site
AFETR
Launch vehicle
Mass (kg)
RCS (m²)

Purposes: comms

External: N2YO · Heavens-Above · Gunter

§ Orbital elements

Epoch: 2026-05-25T02:58:56.896896Z

Period
91.58 min
Inclination
53.0425°
Eccentricity
0.0006858
Mean motion
15.72354401 rev/d
Perigee alt
347.6 km
Apogee alt
356.8 km
Semi-major
6,730.3 km
B*
4.5969e-4
RAAN
188.9162°
Arg perigee
340.4997°
Mean anomaly
19.5757°
Rev number
36,048

§ Raw data

STARLINK-10671 44771U 19074BL  26145.12426964  .00062161  00000+0  45969-3 0  99972 44771  53.0425 188.9162 0006858 340.4997  19.5757 15.72354401360489

JSON: /api/v1/satellites/44771 · /tle

For live sub-satellite position, see the globe view (requires WebGL).

§ Visibility from observer

Set your observer location to see the next 7 days of passes ≥ 10°. The values pass through the URL so the page stays shareable.

No JS? Fill the form by hand. The geolocation button needs JavaScript.